Theta_e
340 339 338 331 333 334 333 335 335 337 337 340 339 338 340 338 337 336 338 338 339 338 339 339 339 338 337 336 330 327 331 335 338 335 331 334 335 334 337 344 345 339 339
337 340 338 336 338 336 334 338 338 336 338 340 340 339 340 338 338 341 335 331 338 335 337 338 338 338 339 337 334 329 326 330 331 330 330 330 329 330 331 339 344 338 332
336 339 336 336 340 337 336 339 331 332 333 332 330 335 335 331 328 327 328 329 332 331 333 337 337 338 340 340 339 336 332 329 336 339 341 344 341 331 331 337 340 345 330
337 339 336 333 332 336 341 329 339 340 342 338 331 327 326 326 327 328 329 329 329 332 336 337 336 339 340 340 341 341 337 335 332 337 346 344 345 341 333 332 329 331 328
342 340 336 331 332 333 335 333 340 337 336 333 336 336 334 335 335 336 336 336 335 335 335 335 335 340 340 339 339 340 341 338 337 339 344 345 346 346 344 341 333 334 331
346 343 334 332 327 335 332 333 334 332 333 333 333 333 336 339 339 338 338 339 340 340 338 338 339 340 339 339 341 340 339 340 340 343 346 346 347 347 344 347 340 338 336
342 338 332 327 328 334 327 330 332 331 331 332 334 339 339 339 338 337 337 337 338 339 340 339 338 338 339 341 342 339 339 339 341 344 345 348 348 345 346 344 343 337 340
345 332 333 330 330 327 326 330 328 329 331 338 339 339 339 338 337 337 337 338 337 338 338 338 338 340 340 340 341 342 342 341 343 346 343 346 347 347 347 344 341 338 336
332 330 329 332 329 325 327 329 328 335 339 338 338 340 340 340 341 339 340 340 340 340 339 338 336 341 340 342 345 346 341 341 345 342 347 347 349 348 347 343 338 336 337
339 328 329 329 325 326 328 329 338 337 338 341 343 345 347 347 348 344 342 341 346 343 342 344 344 346 348 349 349 348 349 348 347 348 347 351 349 349 345 344 340 337 337
345 342 343 340 328 327 336 338 337 339 340 349 351 350 348 347 343 346 345 348 349 350 349 349 350 348 350 347 350 347 349 348 348 349 349 350 348 347 347 344 342 338 338
345 345 345 346 334 337 345 346 344 342 339 343 346 344 349 348 343 348 350 350 351 349 350 351 349 347 347 347 348 351 348 348 347 350 350 348 348 346 345 344 342 341 340
345 346 345 344 341 339 347 347 348 345 346 345 344 343 342 347 347 349 349 350 351 350 350 351 346 350 349 350 351 351 351 348 349 348 349 348 345 344 342 342 343 344 343
346 346 345 346 348 343 347 350 350 349 349 353 350 345 348 349 350 348 348 352 350 349 350 346 345 350 351 351 351 346 349 350 350 348 347 345 343 341 339 335 340 343 344
346 346 345 345 346 345 349 350 350 346 348 350 353 348 343 348 345 349 351 350 350 349 351 348 348 351 351 352 348 348 342 347 347 345 343 341 339 337 335 333 336 339 340
344 346 346 345 345 344 349 349 348 350 349 350 352 349 345 346 344 353 351 349 347 352 352 352 351 350 353 352 350 348 346 345 342 338 338 338 336 337 333 329 328 327 326
342 343 345 340 343 347 347 347 348 348 349 351 353 354 345 350 349 350 352 351 348 351 351 354 352 349 351 353 351 348 342 339 341 341 341 340 335 334 333 332 333 332 329
342 343 342 330 338 345 344 348 350 351 351 353 354 354 347 350 343 350 353 349 352 353 352 349 346 347 347 350 353 348 343 344 343 343 342 338 335 335 333 333 330 329 330
341 342 339 339 334 339 341 345 350 351 350 352 353 352 347 349 349 351 352 350 355 356 354 350 348 351 353 350 349 351 346 347 346 340 340 338 337 333 334 332 331 329 331
341 341 341 343 337 336 340 349 347 347 347 351 352 352 349 346 352 354 354 354 350 356 354 347 348 350 350 349 346 349 347 345 343 340 340 339 337 332 333 332 331 330 329
341 341 343 341 339 346 349 344 346 344 346 349 353 352 349 345 350 353 349 353 355 356 355 353 347 350 351 352 343 339 352 346 343 339 336 336 336 334 334 334 331 328 327
342 339 345 344 344 348 345 349 350 350 350 352 354 350 351 353 350 354 346 348 358 358 353 352 347 347 348 343 340 334 343 348 333 339 340 338 336 336 336 333 331 329 327
346 337 343 347 347 341 339 348 350 351 353 352 351 349 351 353 353 355 355 347 356 357 353 351 346 349 347 342 336 337 337 335 336 336 339 340 337 336 336 333 331 330 328
349 345 338 341 343 335 343 349 349 349 349 349 346 349 352 349 351 353 355 348 351 355 350 348 350 346 341 333 333 335 336 336 338 333 333 335 340 336 334 332 331 329 328
350 351 349 339 337 335 347 347 345 345 342 346 347 353 350 346 351 352 354 351 359 356 353 348 351 352 346 335 335 332 332 330 327 322 322 322 323 330 337 333 331 329 328
350 351 351 346 347 340 341 351 351 348 345 346 345 345 348 348 354 353 353 350 352 355 355 351 351 351 348 344 319 329 324 321 319 322 322 322 323 329 333 331 329 328 328
Wind_Speed
13 11 11 13 15 14 14 13 12 12 12 12 12 12 12 11 11 12 12 12 12 12 13 12 11 11 10 8 7 8 9 10 10 9 11 11 11 11 12 12 8 7 8
16 12 12 13 15 14 14 13 12 12 14 14 13 12 12 11 10 10 10 9 9 10 10 10 9 9 9 8 7 7 7 9 10 11 12 12 11 10 10 9 8 7 7
16 14 13 14 13 14 13 12 12 13 13 14 12 11 10 9 8 8 8 9 9 8 7 7 7 7 7 6 6 5 6 7 9 9 10 11 6 7 7 7 4 6 5
16 15 13 13 13 13 13 13 13 13 14 13 13 14 13 12 11 11 9 8 8 6 5 4 5 6 6 6 5 4 3 5 7 7 8 6 4 5 4 5 5 5 6
14 14 12 12 13 13 13 14 13 13 14 15 14 14 13 12 11 8 7 5 3 3 2 2 4 4 5 5 4 2 2 4 7 8 6 6 3 4 2 1 3 5 7
12 10 10 12 13 13 13 14 13 12 13 14 13 13 12 11 11 10 8 4 1 2 2 3 3 3 4 5 5 1 2 2 5 9 7 3 3 6 6 4 4 5 7
18 15 12 12 14 13 13 14 13 12 13 13 13 12 10 11 12 12 12 12 8 3 4 2 2 3 5 7 7 7 2 2 4 8 8 7 11 10 6 5 5 6 7
17 15 13 14 14 14 14 14 13 13 13 13 13 14 13 13 14 14 14 14 14 12 8 5 5 6 7 10 9 7 6 4 6 5 2 6 11 11 9 6 7 8 9
13 16 14 14 14 14 15 14 14 14 14 14 16 17 17 15 14 12 12 12 13 12 11 9 8 7 7 8 11 10 5 2 3 4 8 7 13 10 7 6 9 10 11
15 15 14 14 14 16 16 16 16 15 16 17 15 14 12 11 10 13 15 16 16 16 15 15 14 11 9 8 9 9 8 4 1 2 3 5 6 9 7 8 10 11 13
10 10 14 16 16 17 17 16 16 16 16 15 10 6 6 5 5 9 12 13 14 12 13 12 11 12 11 10 8 11 15 15 13 4 5 4 7 8 7 11 11 12 12
12 12 11 12 15 18 18 16 15 12 12 12 7 4 4 4 3 9 7 7 8 10 12 12 9 12 11 13 10 16 15 6 6 3 2 5 2 5 10 12 10 12 12
13 12 12 13 17 15 13 13 14 12 12 13 7 13 13 12 15 7 14 11 14 7 9 11 14 11 13 10 9 10 12 6 2 5 7 7 6 8 9 9 10 12 13
21 15 12 16 13 8 5 5 5 6 3 6 9 7 8 9 12 11 10 10 11 9 10 13 10 7 8 9 8 10 12 12 12 9 7 9 9 9 13 12 9 10 13
20 17 17 15 12 17 9 3 11 5 4 5 9 6 13 9 9 7 6 8 5 10 7 6 11 12 7 4 4 7 11 10 10 10 10 11 10 10 13 14 8 6 7
22 20 15 21 19 18 12 13 9 3 5 5 7 7 10 9 4 5 7 7 6 5 8 12 12 12 11 3 2 3 5 6 5 7 6 4 7 8 12 10 10 10 10
19 19 15 18 18 21 18 15 10 8 0 4 5 8 11 15 10 6 3 5 6 2 4 6 9 8 11 7 11 2 6 2 2 2 1 6 10 6 9 7 8 8 9
18 17 11 18 25 20 20 15 10 4 2 2 8 5 10 9 8 5 8 6 13 0 6 11 9 6 7 9 8 4 5 4 4 1 4 6 6 5 6 6 5 8 9
20 17 12 15 22 18 21 14 9 2 5 3 7 5 9 3 7 7 11 9 11 7 9 14 4 7 8 6 4 7 3 5 7 2 6 4 5 8 4 5 5 6 7
22 17 19 18 12 17 14 15 11 14 8 5 4 3 4 1 6 11 10 12 10 8 9 13 9 9 7 11 12 3 3 3 4 3 6 6 6 7 2 6 4 6 8
23 21 18 18 16 17 14 15 15 12 10 5 8 3 1 3 3 7 6 6 8 8 13 13 13 7 11 9 11 8 5 6 2 7 6 9 9 8 5 6 8 8 13
21 25 23 19 18 20 16 17 12 8 10 3 8 2 4 4 4 5 7 8 8 10 14 15 13 8 14 12 10 10 3 7 7 7 9 9 8 5 9 5 4 6 10
20 24 26 25 20 20 19 20 13 11 11 11 7 4 1 2 3 4 9 9 7 10 16 14 12 9 8 8 12 9 3 3 7 5 8 9 8 8 9 5 3 4 5
22 18 23 24 21 19 22 20 18 18 14 9 5 3 7 2 5 1 7 11 7 16 14 13 10 10 12 9 6 7 6 4 3 3 5 7 10 10 11 6 8 6 4
26 23 18 21 20 20 23 19 15 17 16 12 4 6 3 4 4 4 7 8 9 14 13 15 9 11 15 12 5 5 4 4 5 7 3 11 9 9 11 10 12 8 5
29 27 21 21 20 20 24 21 18 16 17 13 13 10 6 8 5 6 7 4 6 13 12 15 11 12 13 14 8 7 10 10 9 9 10 11 13 16 4 8 8 3 8
Wind_Direction
151 135 118 106 105 102 100 97 97 98 94 94 94 91 85 91 91 93 96 103 110 104 93 90 84 79 87 94 97 121 140 136 134 134 142 150 161 167 169 158 149 129 137
147 137 119 109 103 101 100 99 94 96 97 98 99 95 92 93 93 92 97 109 112 106 93 89 81 80 79 78 81 92 111 130 135 141 142 143 153 165 172 174 165 147 148
143 137 123 115 112 111 110 109 100 103 101 98 96 104 101 100 101 101 99 105 111 110 99 83 76 68 69 67 73 86 97 115 131 143 150 138 115 160 164 180 159 178 165
140 133 126 120 118 113 109 109 102 101 99 101 99 99 98 94 87 85 88 93 98 99 87 72 59 60 57 65 66 71 96 122 136 147 132 126 103 128 136 170 203 200 182
132 118 121 121 121 116 111 110 103 101 100 99 96 92 87 84 82 80 73 69 80 100 102 69 53 47 38 20 23 74 138 156 160 163 147 154 176 244 214 125 227 221 199
147 139 132 128 127 120 116 113 108 106 101 97 94 91 86 81 75 69 60 50 142 188 139 81 41 21 16 14 13 288 201 178 156 164 159 185 201 269 276 268 275 242 228
151 153 141 131 129 120 117 119 114 109 104 99 94 89 86 81 74 66 53 46 52 125 152 119 35 40 44 36 27 47 47 173 141 175 194 209 218 253 291 277 298 268 246
164 143 139 129 125 123 121 118 114 109 104 98 89 81 81 78 68 59 53 51 59 70 74 63 56 59 59 52 56 57 50 50 173 166 123 218 219 239 260 271 291 276 255
126 134 136 128 125 121 118 117 112 108 100 95 92 85 82 73 58 46 41 46 52 55 52 47 50 60 66 52 41 39 43 60 112 238 238 241 227 232 241 270 293 267 250
106 116 116 120 118 117 120 117 114 108 104 95 85 72 61 53 44 48 59 60 59 52 58 64 65 62 47 25 15 8 338 347 347 220 197 244 208 215 235 268 284 274 249
103 91 121 112 108 115 116 114 109 105 106 88 68 69 75 66 64 76 71 52 47 46 47 42 39 33 18 11 10 13 328 313 321 233 220 261 192 208 271 296 284 268 257
124 120 113 108 104 115 110 101 100 97 92 89 72 322 82 63 24 53 38 54 46 54 40 27 33 28 14 21 12 13 358 259 348 340 192 132 324 328 313 293 275 265 259
152 127 132 134 120 118 104 108 85 94 88 90 75 57 90 60 76 69 62 49 38 45 45 35 9 20 9 352 349 54 38 63 139 147 78 41 13 355 342 316 283 263 257
151 150 134 140 151 138 156 99 126 86 94 113 69 50 19 45 44 45 29 32 48 41 35 17 5 4 344 355 8 344 18 62 84 68 43 28 3 0 355 342 303 277 273
150 159 151 157 163 171 184 171 163 92 158 77 82 91 56 42 39 40 21 23 10 29 358 4 23 351 312 7 338 332 360 360 2 1 11 19 347 346 343 340 341 314 304
163 175 186 176 167 178 174 157 155 128 105 34 120 73 16 24 44 30 29 42 349 341 328 24 21 15 29 0 49 97 339 323 337 5 27 351 0 5 6 23 39 39 33
175 181 196 198 177 178 172 158 152 128 244 168 139 73 48 47 34 14 32 26 2 268 36 24 346 353 19 25 349 21 86 85 74 107 2 345 8 24 17 26 11 13 14
180 190 197 176 176 180 170 159 143 81 104 355 170 57 57 36 52 67 84 28 2 226 13 352 4 31 35 9 340 192 112 116 146 142 347 23 18 21 4 2 6 0 2
184 190 180 165 176 180 170 169 147 124 121 24 136 69 65 84 28 54 26 38 14 13 2 350 31 13 360 22 327 317 138 161 217 355 345 341 341 349 353 8 341 350 356
180 181 178 192 191 179 169 167 150 143 135 134 164 105 354 48 27 9 28 21 6 348 346 10 23 31 42 17 1 9 290 157 269 281 276 271 298 334 293 310 291 325 349
185 184 183 193 189 175 177 165 150 149 145 191 216 231 51 202 87 342 347 356 19 357 360 12 25 40 33 27 24 17 207 171 211 237 255 280 287 327 282 323 356 8 14
191 183 183 197 192 188 178 161 171 212 223 159 161 108 7 48 115 325 360 16 32 31 10 7 24 65 53 40 26 49 114 157 339 233 275 279 279 290 253 285 335 352 2
191 187 187 194 202 200 182 173 201 223 194 177 191 245 299 212 94 271 335 13 19 22 7 21 19 29 29 44 36 49 57 10 12 21 311 303 264 264 253 268 261 295 325
197 194 192 197 200 196 182 189 207 208 215 214 191 218 171 255 312 186 327 4 17 10 13 20 24 16 25 20 23 55 52 36 359 332 36 345 286 269 269 279 219 237 271
198 198 197 200 199 194 191 194 201 210 205 188 214 195 241 258 142 173 295 5 10 355 15 14 18 20 26 19 12 357 330 337 355 349 356 320 346 358 254 258 215 220 325
201 201 202 202 207 197 197 197 202 207 196 200 203 214 242 225 205 192 272 13 2 357 8 6 13 15 16 20 16 339 5 9 2 9 352 349 7 16 249 209 219 206 311